Regional Weather Roundup
Issued by NWS

Home | Current Version | Previous Version | Graphics & Text | Print | Product List | Glossary On
Versions: 1 2 3 4 5 6 7 8 9 10 11 12 13 14 15 16 17 18 19 20 21 22 23 24 25 26 27 28 29 30 31 32 33 34 35 36 37 38 39 40 41 42 43 44 45 46 47 48 49 50
000
ASUS43 KFSD 291710
RWRSD

WEATHER ROUNDUP FOR SOUTH DAKOTA
NATIONAL WEATHER SERVICE SIOUX FALLS SD
1200 PM CDT FRI MAY 29 2015

NOTE: "FAIR" INDICATES FEW OR NO CLOUDS BELOW 12,000 FEET WITH NO
SIGNIFICANT WEATHER AND/OR OBSTRUCTIONS TO VISIBILITY.


SDZ001>005-009-010-012>017-291800-
NORTHWEST AND NORTH CENTRAL SOUTH DAKOTA

CITY           SKY/WX    TMP DP  RH WIND       PRES   REMARKS
BUFFALO          N/A     49  38  65 N14       30.21R
FAITH            N/A     48  42  80 N20G26    30.22R
MOBRIDGE       CLOUDY    52  45  77 N18G28    30.17R
$$

SDZ012>016-024>037-041>051-057-063-072>074-291800-
SOUTHWEST AND SOUTH CENTRAL SOUTH DAKOTA

CITY           SKY/WX    TMP DP  RH WIND       PRES   REMARKS
RAPID CTY ARPT CLOUDY    47  45  93 N24G33    30.23R
PIERRE         LGT RAIN  50  48  93 N28       30.12R
CUSTER         CLOUDY    47  41  80 N7        30.22R
ELLSWORTH AFB  LGT RAIN  47  47 100 N21G29    30.23  FOG
PHILIP         CLOUDY    50  47  89 N21       30.18R
PINE RIDGE     LGT RAIN  48  45  89 N14G23    30.19R
SPEARFISH      MIX PCPN  41  41 100 NW12G17   30.29R VSB 1/4
WINNER         CLOUDY    57  51  80 N24G36    30.07R
$$

SDZ004>011-016>023-039-040-291800-
NORTHEAST SOUTH DAKOTA

CITY           SKY/WX    TMP DP  RH WIND       PRES   REMARKS
ABERDEEN       CLOUDY    50  45  83 N22G31    30.12R
WATERTOWN      RAIN      49  47  93 N22G31    30.02R FOG
BROOKINGS      CLOUDY    54  48  82 N17G25    29.99R
SISSETON         N/A     49  47  93 N29G38    30.06R
$$

SDZ017-020-022-023-036>040-048>070-291800-
SOUTHEAST SOUTH DAKOTA

CITY           SKY/WX    TMP DP  RH WIND       PRES   REMARKS
SIOUX FALLS    CLOUDY    70  63  78 NE5       29.90S
HURON            N/A    N/A N/A N/A MISG      30.03R
CHAMBERLAIN    LGT RAIN  52  51  97 N22G30    30.05R
MITCHELL       LGT RAIN  59  56  89 N23G33    29.97R
YANKTON        PTSUNNY   70  61  73 W10       29.89S
$$

ABBREVIATIONS USED IN REMARKS
   TC - TEMPERATURE IN CELSIUS
  WCI - WIND CHILL INDEX
   HX - HEAT INDEX
  VSB - VISIBILITY




USA.gov is the U.S. government's official web portal to all federal, state and local government web resources and services.